Tiempo cada hora Murnau am Staffelsee

Hoy, 20 Octubre, Martes

Tiempo Temperatura Precipitaciones Viento Presión Humedad
00:00 -9°C° 0 mm 1 mps 460 mmHg 35%
01:00 -9°C° 0 mm 1 mps 459 mmHg 35%
02:00 -9°C° 0 mm 1 mps 459 mmHg 36%
03:00 -10°C° 0 mm 1 mps 458 mmHg 36%
04:00 -10°C° 0 mm 1 mps 458 mmHg 36%
05:00 -11°C° 0 mm 1 mps 458 mmHg 38%
06:00 -10°C° 0 mm 1 mps 458 mmHg 39%
07:00 -9°C° 0 mm 1 mps 459 mmHg 40%
08:00 -9°C° 0 mm 0 mps 459 mmHg 41%
09:00 -7°C° 0 mm 1 mps 460 mmHg 41%
10:00 -6°C° 0 mm 1 mps 461 mmHg 41%
11:00 -4°C° 0 mm 1 mps 461 mmHg 43%
12:00 -3°C° 0 mm 1 mps 461 mmHg 43%
13:00 -3°C° 0 mm 1 mps 461 mmHg 43%
14:00 -2°C° 0 mm 1 mps 461 mmHg 42%
15:00 -3°C° 0 mm 1 mps 460 mmHg 45%
16:00 -6°C° 0 mm 1 mps 460 mmHg 47%
17:00 -7°C° 0 mm 1 mps 459 mmHg 50%
18:00 -7°C° 0 mm 1 mps 458 mmHg 49%
19:00 -8°C° 0 mm 1 mps 458 mmHg 48%
20:00 -9°C° 0 mm 1 mps 458 mmHg 47%
21:00 -9°C° 0 mm 1 mps 458 mmHg 47%
22:00 -9°C° 0 mm 1 mps 457 mmHg 47%
23:00 -10°C° 0 mm 1 mps 457 mmHg 47%

Mañana, 21 Octubre, Miércoles

Tiempo Temperatura Precipitaciones Viento Presión Humedad
00:00 -10°C° 0 mm 1 mps 457 mmHg 48%
01:00 -10°C° 0 mm 1 mps 456 mmHg 48%
02:00 -11°C° 0 mm 1 mps 456 mmHg 49%
03:00 -11°C° 0 mm 1 mps 456 mmHg 49%
04:00 -11°C° 0 mm 1 mps 456 mmHg 48%
05:00 -11°C° 0 mm 1 mps 455 mmHg 48%
06:00 -11°C° 0 mm 1 mps 456 mmHg 47%
07:00 -10°C° 0 mm 1 mps 457 mmHg 47%
08:00 -10°C° 0 mm 1 mps 457 mmHg 46%
09:00 -8°C° 0 mm 1 mps 458 mmHg 44%
10:00 -7°C° 0 mm 1 mps 459 mmHg 43%
11:00 -5°C° 0 mm 0 mps 460 mmHg 41%
12:00 -5°C° 0 mm 0 mps 460 mmHg 41%
13:00 -4°C° 0 mm 0 mps 460 mmHg 42%
14:00 -3°C° 0 mm 0 mps 461 mmHg 42%
15:00 -3°C° 0 mm 1 mps 460 mmHg 45%
16:00 -6°C° 0 mm 1 mps 459 mmHg 47%
17:00 -7°C° 0 mm 1 mps 458 mmHg 50%
18:00 -7°C° 0 mm 1 mps 458 mmHg 48%
19:00 -8°C° 0 mm 1 mps 458 mmHg 47%
20:00 -10°C° 0 mm 2 mps 458 mmHg 45%
21:00 -10°C° 0 mm 2 mps 457 mmHg 43%
22:00 -10°C° 0 mm 2 mps 457 mmHg 41%
23:00 -12°C° 0 mm 2 mps 457 mmHg 39%

Pasado mañana, 22 Octubre, Jueves

Tiempo Temperatura Precipitaciones Viento Presión Humedad
00:00 -12°C° 0 mm 2 mps 456 mmHg 39%
01:00 -12°C° 0 mm 2 mps 456 mmHg 38%
02:00 -13°C° 0 mm 2 mps 456 mmHg 38%
03:00 -11°C° 0 mm 1 mps 455 mmHg 40%
04:00 -11°C° 0 mm 1 mps 455 mmHg 41%
05:00 -12°C° 0 mm 1 mps 455 mmHg 43%
06:00 -11°C° 0 mm 1 mps 455 mmHg 44%
07:00 -10°C° 0 mm 1 mps 456 mmHg 46%
08:00 -10°C° 0 mm 1 mps 456 mmHg 47%
09:00 -8°C° 0 mm 1 mps 457 mmHg 47%
10:00 -7°C° 0 mm 1 mps 458 mmHg 46%
11:00 -4°C° 0 mm 1 mps 459 mmHg 45%
12:00 -4°C° 0 mm 1 mps 459 mmHg 45%
13:00 -3°C° 0 mm 1 mps 459 mmHg 45%
14:00 -2°C° 0 mm 1 mps 459 mmHg 44%
15:00 -3°C° 0 mm 1 mps 458 mmHg 46%
16:00 -4°C° 0 mm 1 mps 457 mmHg 48%
17:00 -6°C° 0 mm 1 mps 456 mmHg 50%
18:00 -8°C° 0 mm 2 mps 456 mmHg 50%
19:00 -9°C° 0 mm 2 mps 456 mmHg 50%
20:00 -9°C° 0 mm 2 mps 455 mmHg 50%
21:00 -10°C° 0 mm 2 mps 455 mmHg 51%
22:00 -10°C° 0 mm 2 mps 455 mmHg 51%
23:00 -10°C° 0 mm 2 mps 454 mmHg 52%

23 Octubre, Viernes

Tiempo Temperatura Precipitaciones Viento Presión Humedad
00:00 -12°C° 0 mm 2 mps 454 mmHg 52%
01:00 -12°C° 0 mm 2 mps 453 mmHg 53%
02:00 -12°C° 0 mm 2 mps 453 mmHg 53%
03:00 -13°C° 0 mm 2 mps 453 mmHg 53%
04:00 -13°C° 0 mm 2 mps 452 mmHg 54%
05:00 -13°C° 0 mm 2 mps 452 mmHg 54%
06:00 -13°C° 0 mm 2 mps 452 mmHg 54%
07:00 -12°C° 0 mm 2 mps 453 mmHg 55%
08:00 -12°C° 0 mm 2 mps 453 mmHg 55%
09:00 -9°C° 0 mm 2 mps 455 mmHg 52%
10:00 -7°C° 0 mm 2 mps 456 mmHg 50%
11:00 -5°C° 0 mm 2 mps 457 mmHg 47%
12:00 -5°C° 0 mm 4 mps 457 mmHg 46%
13:00 -5°C° 0 mm 5 mps 457 mmHg 45%
14:00 -4°C° 0 mm 6 mps 458 mmHg 44%
15:00 -5°C° 0 mm 5 mps 457 mmHg 45%
16:00 -7°C° 0 mm 5 mps 456 mmHg 46%
17:00 -8°C° 0 mm 4 mps 455 mmHg 46%
18:00 -8°C° 0 mm 3 mps 455 mmHg 48%
19:00 -8°C° 0 mm 3 mps 455 mmHg 50%
20:00 -9°C° 0 mm 3 mps 454 mmHg 51%
21:00 -9°C° 0 mm 3 mps 455 mmHg 56%
22:00 -10°C° 0 mm 3 mps 455 mmHg 60%
23:00 -9°C° 0 mm 2 mps 455 mmHg 64%

24 Octubre, Sábado

Tiempo Temperatura Precipitaciones Viento Presión Humedad
00:00 -9°C° 0 mm 2 mps 455 mmHg 69%
01:00 -9°C° 0 mm 2 mps 455 mmHg 73%
02:00 -9°C° 0 mm 2 mps 455 mmHg 78%
03:00 -9°C° 0.1 mm 2 mps 454 mmHg 79%
04:00 -9°C° 0.1 mm 2 mps 454 mmHg 80%
05:00 -10°C° 0.1 mm 2 mps 454 mmHg 81%
06:00 -9°C° 0 mm 2 mps 454 mmHg 80%
07:00 -9°C° 0 mm 2 mps 455 mmHg 79%
08:00 -8°C° 0 mm 1 mps 455 mmHg 77%
09:00 -8°C° 0 mm 2 mps 456 mmHg 71%
10:00 -6°C° 0 mm 2 mps 456 mmHg 64%
11:00 -5°C° 0 mm 2 mps 457 mmHg 57%
12:00 -5°C° 0 mm 3 mps 457 mmHg 54%
13:00 -5°C° 0 mm 4 mps 458 mmHg 51%
14:00 -5°C° 0 mm 5 mps 458 mmHg 47%
15:00 -5°C° 0 mm 4 mps 458 mmHg 49%
16:00 -6°C° 0 mm 3 mps 457 mmHg 51%
17:00 -6°C° 0 mm 3 mps 457 mmHg 52%
18:00 -6°C° 0 mm 2 mps 457 mmHg 54%
19:00 -7°C° 0 mm 2 mps 456 mmHg 56%
20:00 -8°C° 0 mm 2 mps 456 mmHg 58%
21:00 -8°C° 0.1 mm 2 mps 456 mmHg 63%
22:00 -8°C° 0.1 mm 2 mps 456 mmHg 68%
23:00 -8°C° 0.1 mm 2 mps 457 mmHg 73%

25 Octubre, Domingo

Tiempo Temperatura Precipitaciones Viento Presión Humedad
00:00 -9°C° 0.4 mm 2 mps 457 mmHg 78%
01:00 -8°C° 0.4 mm 1 mps 457 mmHg 83%
02:00 -8°C° 0.4 mm 1 mps 456 mmHg 89%
03:00 -9°C° 0.1 mm 1 mps 456 mmHg 89%
04:00 -9°C° 0.1 mm 1 mps 456 mmHg 90%
05:00 -10°C° 0.1 mm 1 mps 456 mmHg 90%
06:00 -9°C° 0.1 mm 1 mps 456 mmHg 89%
07:00 -9°C° 0.1 mm 1 mps 457 mmHg 88%
08:00 -9°C° 0.1 mm 1 mps 457 mmHg 87%
09:00 -8°C° 0 mm 1 mps 457 mmHg 81%
10:00 -8°C° 0 mm 1 mps 458 mmHg 76%
11:00 -7°C° 0 mm 1 mps 458 mmHg 70%
12:00 -6°C° 0 mm 0 mps 458 mmHg 66%
13:00 -6°C° 0 mm 0 mps 459 mmHg 63%
14:00 -5°C° 0 mm 0 mps 459 mmHg 59%
15:00 -6°C° 0 mm 0 mps 459 mmHg 62%
16:00 -7°C° 0 mm 1 mps 459 mmHg 65%
17:00 -7°C° 0 mm 1 mps 458 mmHg 68%
18:00 -8°C° 0 mm 1 mps 458 mmHg 69%
19:00 -8°C° 0 mm 1 mps 458 mmHg 70%
20:00 -10°C° 0 mm 2 mps 458 mmHg 71%
21:00 -12°C° 0 mm 2 mps 458 mmHg 72%
22:00 -12°C° 0 mm 2 mps 458 mmHg 72%
23:00 -13°C° 0 mm 2 mps 458 mmHg 73%

26 Octubre, Lunes

Tiempo Temperatura Precipitaciones Viento Presión Humedad
00:00 -13°C° 0 mm 2 mps 457 mmHg 73%
01:00 -14°C° 0 mm 2 mps 457 mmHg 73%
02:00 -12°C° 0 mm 1 mps 457 mmHg 74%
03:00 -12°C° 0 mm 1 mps 457 mmHg 73%
04:00 -13°C° 0 mm 1 mps 457 mmHg 73%
05:00 -13°C° 0 mm 1 mps 457 mmHg 73%
06:00 -13°C° 0 mm 1 mps 457 mmHg 71%
07:00 -12°C° 0 mm 1 mps 458 mmHg 70%
08:00 -12°C° 0 mm 1 mps 458 mmHg 68%
09:00 -10°C° 0 mm 1 mps 459 mmHg 64%
10:00 -9°C° 0 mm 1 mps 459 mmHg 61%
11:00 -7°C° 0 mm 1 mps 460 mmHg 58%
12:00 -7°C° 0 mm 1 mps 460 mmHg 55%
13:00 -6°C° 0 mm 0 mps 461 mmHg 53%
14:00 -5°C° 0 mm 0 mps 461 mmHg 51%
15:00 -6°C° 0 mm 0 mps 460 mmHg 53%
16:00 -7°C° 0 mm 1 mps 459 mmHg 55%
17:00 -8°C° 0 mm 1 mps 459 mmHg 58%
18:00 -9°C° 0 mm 1 mps 458 mmHg 55%
19:00 -10°C° 0 mm 1 mps 458 mmHg 53%
20:00 -10°C° 0 mm 1 mps 458 mmHg 51%
21:00 -10°C° 0 mm 1 mps 458 mmHg 51%
22:00 -11°C° 0 mm 1 mps 458 mmHg 51%
23:00 -11°C° 0 mm 1 mps 457 mmHg 51%
Mostrar más

Necesitamos Su Consentimiento

Meteoprog y nuestros Proveedores de Servicios pueden almacenar y acceder a sus datos personales como cookies, identificadores de dispositivo u otras tecnologías similares de su dispositivo y procesar dichos datos para personalizar contenido y anuncios, además de ofrecer funciones de redes sociales y analizar el tráfico.

  • Almacenar y/o acceder a información en su dispositivo

    Se puede almacenar o acceder a cookies, identificadores de dispositivo u otra información de su dispositivo para los fines anteriormente indicados.

  • Anuncios y contenido personalizados, medición de anuncios y contenido, percepciones del público, y desarrollo de productos

    Los anuncios y el contenido pueden personalizarse en base a su perfil. Se pueden añadir más datos para personalizar mejor los anuncios y contenidos. Se puede medir el rendimiento de los anuncios y contenidos. Se puede obtener la percepción sobre el público que ha visto los anuncios y contenidos. Dichos datos pueden usarse para desarrollar o mejorar la experiencia del usuario, sistemas y software.

Al hacer clic en ‘Estoy De Acuerdo’ usted permitirá el uso de las cookies, identificadores de dispositivo, balizas web u otras tecnologías similares indicadas. Su configuración puede cambiarse desde el navegador de su dispositivo.

Para ciertos fines, los intereses legítimos pueden ser considerados por encima del consentimiento. Puede leer más sobre ello en nuestra Política de Privacidad y Cookies.